Volver al catálogo

CZ-4B DEB

ActivoLEO
NORAD 43431·DEBRIS·🇨🇳 China

Lanzado Jun 15, 2017 desde Jiuquan Satellite Launch Center

Loading…

Próximos Pases (próximas 24 horas)

TLE

ActualizadoSource: Space-Track

Época: Sep 14, 2026, 00:34 UTC

1 43431U 17034G   26257.02364485  .00014055  00000-0  87639-3 0  9995
2 43431  43.0765 243.9016 0109442  65.3073 295.9120 15.04518151493534

Sigue CZ-4B DEB en tiempo real con AllMySat

Download on the App Store